owner,sensor,date,latitude,longitude,sea_surface_height_above_sea_level,qcFlag 
COMPS,ioos:station:USF.COMPS:SHP:1,2017-03-01T18:00:00Z,30.0600,-84.2910,-9.965,1111122 
COMPS,ioos:station:USF.COMPS:SHP:1,2017-03-01T18:06:00Z,30.0600,-84.2910,-9.926,1111122 
COMPS,ioos:station:USF.COMPS:SHP:1,2017-03-01T18:12:00Z,30.0600,-84.2910,-9.892,1111122 
COMPS,ioos:station:USF.COMPS:SHP:1,2017-03-01T18:18:00Z,30.0600,-84.2910,-9.859,1111122 
COMPS,ioos:station:USF.COMPS:SHP:1,2017-03-01T18:24:00Z,30.0600,-84.2910,-9.828,1111122 
COMPS,ioos:station:USF.COMPS:SHP:1,2017-03-01T18:30:00Z,30.0600,-84.2910,-9.801,1111122 
COMPS,ioos:station:USF.COMPS:SHP:1,2017-03-01T18:36:00Z,30.0600,-84.2910,-9.775,1111122 
COMPS,ioos:station:USF.COMPS:SHP:1,2017-03-01T18:42:00Z,30.0600,-84.2910,-9.749,1111122 
COMPS,ioos:station:USF.COMPS:SHP:1,2017-03-01T18:48:00Z,30.0600,-84.2910,-9.718,1111122 
COMPS,ioos:station:USF.COMPS:SHP:1,2017-03-01T18:54:00Z,30.0600,-84.2910,-9.688,1111122 
COMPS,ioos:station:USF.COMPS:SHP:1,2017-03-01T19:00:00Z,30.0600,-84.2910,-9.663,1111122 
COMPS,ioos:station:USF.COMPS:SHP:1,2017-03-01T19:06:00Z,30.0600,-84.2910,-9.645,1111122 
COMPS,ioos:station:USF.COMPS:SHP:1,2017-03-01T19:12:00Z,30.0600,-84.2910,-9.622,1111122 
COMPS,ioos:station:USF.COMPS:SHP:1,2017-03-01T19:18:00Z,30.0600,-84.2910,-9.593,1111122 
COMPS,ioos:station:USF.COMPS:SHP:1,2017-03-01T19:24:00Z,30.0600,-84.2910,-9.567,1111122 
COMPS,ioos:station:USF.COMPS:SHP:1,2017-03-01T19:30:00Z,30.0600,-84.2910,-9.548,1111122 
COMPS,ioos:station:USF.COMPS:SHP:1,2017-03-01T19:36:00Z,30.0600,-84.2910,-9.53,1111122 
COMPS,ioos:station:USF.COMPS:SHP:1,2017-03-01T19:42:00Z,30.0600,-84.2910,-9.514,1111122 
COMPS,ioos:station:USF.COMPS:SHP:1,2017-03-01T19:48:00Z,30.0600,-84.2910,-9.497,1111122 
COMPS,ioos:station:USF.COMPS:SHP:1,2017-03-01T19:54:00Z,30.0600,-84.2910,-9.476,1111122 
COMPS,ioos:station:USF.COMPS:SHP:1,2017-03-01T20:00:00Z,30.0600,-84.2910,-9.454,1111122 
COMPS,ioos:station:USF.COMPS:SHP:1,2017-03-01T20:06:00Z,30.0600,-84.2910,-9.437,1111122 
COMPS,ioos:station:USF.COMPS:SHP:1,2017-03-01T20:12:00Z,30.0600,-84.2910,-9.423,1111122 
COMPS,ioos:station:USF.COMPS:SHP:1,2017-03-01T20:18:00Z,30.0600,-84.2910,-9.414,1111122 
COMPS,ioos:station:USF.COMPS:SHP:1,2017-03-01T20:24:00Z,30.0600,-84.2910,-9.402,1111122 
COMPS,ioos:station:USF.COMPS:SHP:1,2017-03-01T20:30:00Z,30.0600,-84.2910,-9.391,1111122 
COMPS,ioos:station:USF.COMPS:SHP:1,2017-03-01T20:36:00Z,30.0600,-84.2910,-9.375,1111122 
COMPS,ioos:station:USF.COMPS:SHP:1,2017-03-01T20:42:00Z,30.0600,-84.2910,-9.363,1111122 
COMPS,ioos:station:USF.COMPS:SHP:1,2017-03-01T20:48:00Z,30.0600,-84.2910,-9.35,1111122 
COMPS,ioos:station:USF.COMPS:SHP:1,2017-03-01T20:54:00Z,30.0600,-84.2910,-9.353,1111122 
COMPS,ioos:station:USF.COMPS:SHP:1,2017-03-01T21:54:00Z,30.0600,-84.2910,-9.388,1111122 
COMPS,ioos:station:USF.COMPS:SHP:1,2017-03-02T20:00:00Z,30.0600,-84.2910,-9.833,1111122 
COMPS,ioos:station:USF.COMPS:SHP:1,2017-03-02T21:48:00Z,30.0600,-84.2910,-9.588,1111122 
COMPS,ioos:station:USF.COMPS:SHP:1,2017-03-02T21:54:00Z,30.0600,-84.2910,-9.594,1111122 
COMPS,ioos:station:USF.COMPS:SHP:1,2017-03-02T22:00:00Z,30.0600,-84.2910,-9.595,1111122 
COMPS,ioos:station:USF.COMPS:SHP:1,2017-03-02T22:06:00Z,30.0600,-84.2910,-9.59,1111122 
COMPS,ioos:station:USF.COMPS:SHP:1,2017-03-02T22:12:00Z,30.0600,-84.2910,-9.592,1111122 
COMPS,ioos:station:USF.COMPS:SHP:1,2017-03-02T22:18:00Z,30.0600,-84.2910,-9.594,1111122 
COMPS,ioos:station:USF.COMPS:SHP:1,2017-03-02T22:24:00Z,30.0600,-84.2910,-9.602,1111122 
COMPS,ioos:station:USF.COMPS:SHP:1,2017-03-02T22:30:00Z,30.0600,-84.2910,-9.607,1111122 
COMPS,ioos:station:USF.COMPS:SHP:1,2017-03-02T22:36:00Z,30.0600,-84.2910,-9.617,1111122 
COMPS,ioos:station:USF.COMPS:SHP:1,2017-03-02T22:42:00Z,30.0600,-84.2910,-9.627,1111122 
COMPS,ioos:station:USF.COMPS:SHP:1,2017-03-02T22:48:00Z,30.0600,-84.2910,-9.641,1111122 
COMPS,ioos:station:USF.COMPS:SHP:1,2017-03-02T22:54:00Z,30.0600,-84.2910,-9.658,1111122 
COMPS,ioos:station:USF.COMPS:SHP:1,2017-03-02T23:00:00Z,30.0600,-84.2910,-9.683,1111122 
COMPS,ioos:station:USF.COMPS:SHP:1,2017-03-02T23:06:00Z,30.0600,-84.2910,-9.698,1111122 
COMPS,ioos:station:USF.COMPS:SHP:1,2017-03-02T23:12:00Z,30.0600,-84.2910,-9.713,1111122 
COMPS,ioos:station:USF.COMPS:SHP:1,2017-03-02T23:18:00Z,30.0600,-84.2910,-9.733,1111122 
COMPS,ioos:station:USF.COMPS:SHP:1,2017-03-02T23:24:00Z,30.0600,-84.2910,-9.757,1111122 
COMPS,ioos:station:USF.COMPS:SHP:1,2017-03-02T23:30:00Z,30.0600,-84.2910,-9.777,1111122 
COMPS,ioos:station:USF.COMPS:SHP:1,2017-03-02T23:36:00Z,30.0600,-84.2910,-9.802,1111122 
COMPS,ioos:station:USF.COMPS:SHP:1,2017-03-02T23:42:00Z,30.0600,-84.2910,-9.82,1111122 
COMPS,ioos:station:USF.COMPS:SHP:1,2017-03-02T23:48:00Z,30.0600,-84.2910,-9.842,1111122 
COMPS,ioos:station:USF.COMPS:SHP:1,2017-03-02T23:54:00Z,30.0600,-84.2910,-9.875,1111122 
COMPS,ioos:station:USF.COMPS:SHP:1,2017-03-03T00:00:00Z,30.0600,-84.2910,-9.902,1111122 
COMPS,ioos:station:USF.COMPS:SHP:1,2017-03-03T00:06:00Z,30.0600,-84.2910,-9.924,1111122 
COMPS,ioos:station:USF.COMPS:SHP:1,2017-03-03T00:12:00Z,30.0600,-84.2910,-9.952,1111122 
COMPS,ioos:station:USF.COMPS:SHP:1,2017-03-03T00:18:00Z,30.0600,-84.2910,-9.987,1111122 
COMPS,ioos:station:USF.COMPS:SHP:1,2017-03-03T20:42:00Z,30.0600,-84.2910,-9.977,1111122 
COMPS,ioos:station:USF.COMPS:SHP:1,2017-03-03T20:48:00Z,30.0600,-84.2910,-9.954,1111122 
COMPS,ioos:station:USF.COMPS:SHP:1,2017-03-03T20:54:00Z,30.0600,-84.2910,-9.947,1111122 
COMPS,ioos:station:USF.COMPS:SHP:1,2017-03-03T21:00:00Z,30.0600,-84.2910,-9.938,1111122 
COMPS,ioos:station:USF.COMPS:SHP:1,2017-03-03T21:06:00Z,30.0600,-84.2910,-9.916,1111122 
COMPS,ioos:station:USF.COMPS:SHP:1,2017-03-03T21:12:00Z,30.0600,-84.2910,-9.9,1111122 
COMPS,ioos:station:USF.COMPS:SHP:1,2017-03-03T21:18:00Z,30.0600,-84.2910,-9.893,1111122 
COMPS,ioos:station:USF.COMPS:SHP:1,2017-03-03T21:24:00Z,30.0600,-84.2910,-9.876,1111122 
COMPS,ioos:station:USF.COMPS:SHP:1,2017-03-03T21:30:00Z,30.0600,-84.2910,-9.857,1111122 
COMPS,ioos:station:USF.COMPS:SHP:1,2017-03-03T21:36:00Z,30.0600,-84.2910,-9.86,1111122 
COMPS,ioos:station:USF.COMPS:SHP:1,2017-03-03T21:42:00Z,30.0600,-84.2910,-9.853,1111122 
COMPS,ioos:station:USF.COMPS:SHP:1,2017-03-03T21:48:00Z,30.0600,-84.2910,-9.837,1111122 
COMPS,ioos:station:USF.COMPS:SHP:1,2017-03-03T21:54:00Z,30.0600,-84.2910,-9.828,1111122 
COMPS,ioos:station:USF.COMPS:SHP:1,2017-03-03T22:00:00Z,30.0600,-84.2910,-9.824,1111122 
COMPS,ioos:station:USF.COMPS:SHP:1,2017-03-03T22:06:00Z,30.0600,-84.2910,-9.81,1111122 
COMPS,ioos:station:USF.COMPS:SHP:1,2017-03-03T22:12:00Z,30.0600,-84.2910,-9.803,1111122 
COMPS,ioos:station:USF.COMPS:SHP:1,2017-03-03T22:18:00Z,30.0600,-84.2910,-9.804,1111122 
COMPS,ioos:station:USF.COMPS:SHP:1,2017-03-03T22:24:00Z,30.0600,-84.2910,-9.802,1111122 
COMPS,ioos:station:USF.COMPS:SHP:1,2017-03-03T22:30:00Z,30.0600,-84.2910,-9.798,1111122 
COMPS,ioos:station:USF.COMPS:SHP:1,2017-03-03T22:36:00Z,30.0600,-84.2910,-9.798,1111122 
COMPS,ioos:station:USF.COMPS:SHP:1,2017-03-03T22:42:00Z,30.0600,-84.2910,-9.799,1111122 
COMPS,ioos:station:USF.COMPS:SHP:1,2017-03-03T22:48:00Z,30.0600,-84.2910,-9.801,1111122 
COMPS,ioos:station:USF.COMPS:SHP:1,2017-03-03T22:54:00Z,30.0600,-84.2910,-9.798,1111122 
COMPS,ioos:station:USF.COMPS:SHP:1,2017-03-03T23:00:00Z,30.0600,-84.2910,-9.8,1111122 
COMPS,ioos:station:USF.COMPS:SHP:1,2017-03-03T23:06:00Z,30.0600,-84.2910,-9.814,1111122 
COMPS,ioos:station:USF.COMPS:SHP:1,2017-03-03T23:12:00Z,30.0600,-84.2910,-9.817,1111122 
COMPS,ioos:station:USF.COMPS:SHP:1,2017-03-03T23:18:00Z,30.0600,-84.2910,-9.819,1111122 
COMPS,ioos:station:USF.COMPS:SHP:1,2017-03-03T23:24:00Z,30.0600,-84.2910,-9.829,1111122 
COMPS,ioos:station:USF.COMPS:SHP:1,2017-03-03T23:30:00Z,30.0600,-84.2910,-9.839,1111122 
COMPS,ioos:station:USF.COMPS:SHP:1,2017-03-03T23:36:00Z,30.0600,-84.2910,-9.849,1111122 
COMPS,ioos:station:USF.COMPS:SHP:1,2017-03-03T23:42:00Z,30.0600,-84.2910,-9.869,1111122 
COMPS,ioos:station:USF.COMPS:SHP:1,2017-03-03T23:48:00Z,30.0600,-84.2910,-9.879,1111122 
COMPS,ioos:station:USF.COMPS:SHP:1,2017-03-03T23:54:00Z,30.0600,-84.2910,-9.88,1111122 
COMPS,ioos:station:USF.COMPS:SHP:1,2017-03-04T00:00:00Z,30.0600,-84.2910,-9.896,1111122 
COMPS,ioos:station:USF.COMPS:SHP:1,2017-03-04T00:06:00Z,30.0600,-84.2910,-9.916,1111122 
COMPS,ioos:station:USF.COMPS:SHP:1,2017-03-04T00:12:00Z,30.0600,-84.2910,-9.932,1111122 
COMPS,ioos:station:USF.COMPS:SHP:1,2017-03-04T00:18:00Z,30.0600,-84.2910,-9.949,1111122 
COMPS,ioos:station:USF.COMPS:SHP:1,2017-03-04T00:24:00Z,30.0600,-84.2910,-9.972,1111122 
COMPS,ioos:station:USF.COMPS:SHP:1,2017-03-04T00:30:00Z,30.0600,-84.2910,-9.994,1111122 
COMPS,ioos:station:USF.COMPS:SHP:1,2017-03-04T21:00:00Z,30.0600,-84.2910,-9.987,1111122 
COMPS,ioos:station:USF.COMPS:SHP:1,2017-03-04T21:06:00Z,30.0600,-84.2910,-9.978,1111122 
COMPS,ioos:station:USF.COMPS:SHP:1,2017-03-04T21:12:00Z,30.0600,-84.2910,-9.97,1111122 
COMPS,ioos:station:USF.COMPS:SHP:1,2017-03-04T21:18:00Z,30.0600,-84.2910,-9.957,1111122 
COMPS,ioos:station:USF.COMPS:SHP:1,2017-03-04T21:24:00Z,30.0600,-84.2910,-9.939,1111122 
COMPS,ioos:station:USF.COMPS:SHP:1,2017-03-04T21:30:00Z,30.0600,-84.2910,-9.927,1111122 
COMPS,ioos:station:USF.COMPS:SHP:1,2017-03-04T21:36:00Z,30.0600,-84.2910,-9.916,1111122 
COMPS,ioos:station:USF.COMPS:SHP:1,2017-03-04T21:42:00Z,30.0600,-84.2910,-9.902,1111122 
COMPS,ioos:station:USF.COMPS:SHP:1,2017-03-04T21:48:00Z,30.0600,-84.2910,-9.892,1111122 
COMPS,ioos:station:USF.COMPS:SHP:1,2017-03-04T21:54:00Z,30.0600,-84.2910,-9.884,1111122 
COMPS,ioos:station:USF.COMPS:SHP:1,2017-03-04T22:00:00Z,30.0600,-84.2910,-9.876,1111122 
COMPS,ioos:station:USF.COMPS:SHP:1,2017-03-04T22:06:00Z,30.0600,-84.2910,-9.862,1111122 
COMPS,ioos:station:USF.COMPS:SHP:1,2017-03-04T22:12:00Z,30.0600,-84.2910,-9.845,1111122 
COMPS,ioos:station:USF.COMPS:SHP:1,2017-03-04T22:18:00Z,30.0600,-84.2910,-9.834,1111122 
COMPS,ioos:station:USF.COMPS:SHP:1,2017-03-04T22:24:00Z,30.0600,-84.2910,-9.824,1111122 
COMPS,ioos:station:USF.COMPS:SHP:1,2017-03-04T22:30:00Z,30.0600,-84.2910,-9.813,1111122 
COMPS,ioos:station:USF.COMPS:SHP:1,2017-03-04T22:36:00Z,30.0600,-84.2910,-9.808,1111122 
COMPS,ioos:station:USF.COMPS:SHP:1,2017-03-04T22:42:00Z,30.0600,-84.2910,-9.803,1111122 
COMPS,ioos:station:USF.COMPS:SHP:1,2017-03-04T22:48:00Z,30.0600,-84.2910,-9.8,1111122 
COMPS,ioos:station:USF.COMPS:SHP:1,2017-03-04T22:54:00Z,30.0600,-84.2910,-9.801,1111122 
COMPS,ioos:station:USF.COMPS:SHP:1,2017-03-04T23:00:00Z,30.0600,-84.2910,-9.797,1111122 
COMPS,ioos:station:USF.COMPS:SHP:1,2017-03-04T23:06:00Z,30.0600,-84.2910,-9.791,1111122 
COMPS,ioos:station:USF.COMPS:SHP:1,2017-03-04T23:12:00Z,30.0600,-84.2910,-9.785,1111122 
COMPS,ioos:station:USF.COMPS:SHP:1,2017-03-04T23:18:00Z,30.0600,-84.2910,-9.778,1111122 
COMPS,ioos:station:USF.COMPS:SHP:1,2017-03-04T23:24:00Z,30.0600,-84.2910,-9.789,1111122 
COMPS,ioos:station:USF.COMPS:SHP:1,2017-03-04T23:30:00Z,30.0600,-84.2910,-9.801,1111122 
COMPS,ioos:station:USF.COMPS:SHP:1,2017-03-04T23:36:00Z,30.0600,-84.2910,-9.796,1111122 
COMPS,ioos:station:USF.COMPS:SHP:1,2017-03-04T23:42:00Z,30.0600,-84.2910,-9.795,1111122 
COMPS,ioos:station:USF.COMPS:SHP:1,2017-03-04T23:48:00Z,30.0600,-84.2910,-9.799,1111122 
COMPS,ioos:station:USF.COMPS:SHP:1,2017-03-04T23:54:00Z,30.0600,-84.2910,-9.806,1111122 
COMPS,ioos:station:USF.COMPS:SHP:1,2017-03-05T00:00:00Z,30.0600,-84.2910,-9.809,1111122 
COMPS,ioos:station:USF.COMPS:SHP:1,2017-03-05T00:06:00Z,30.0600,-84.2910,-9.82,1111122 
COMPS,ioos:station:USF.COMPS:SHP:1,2017-03-05T00:12:00Z,30.0600,-84.2910,-9.829,1111122 
COMPS,ioos:station:USF.COMPS:SHP:1,2017-03-05T00:18:00Z,30.0600,-84.2910,-9.838,1111122 
COMPS,ioos:station:USF.COMPS:SHP:1,2017-03-05T00:24:00Z,30.0600,-84.2910,-9.847,1111122 
COMPS,ioos:station:USF.COMPS:SHP:1,2017-03-05T00:30:00Z,30.0600,-84.2910,-9.853,1111122 
COMPS,ioos:station:USF.COMPS:SHP:1,2017-03-05T00:36:00Z,30.0600,-84.2910,-9.863,1111122 
COMPS,ioos:station:USF.COMPS:SHP:1,2017-03-05T00:42:00Z,30.0600,-84.2910,-9.876,1111122 
COMPS,ioos:station:USF.COMPS:SHP:1,2017-03-05T00:48:00Z,30.0600,-84.2910,-9.895,1111122 
COMPS,ioos:station:USF.COMPS:SHP:1,2017-03-05T00:54:00Z,30.0600,-84.2910,-9.91,1111122 
COMPS,ioos:station:USF.COMPS:SHP:1,2017-03-05T01:00:00Z,30.0600,-84.2910,-9.929,1111122 
COMPS,ioos:station:USF.COMPS:SHP:1,2017-03-05T01:06:00Z,30.0600,-84.2910,-9.945,1111122 
COMPS,ioos:station:USF.COMPS:SHP:1,2017-03-05T01:12:00Z,30.0600,-84.2910,-9.956,1111122 
COMPS,ioos:station:USF.COMPS:SHP:1,2017-03-05T01:18:00Z,30.0600,-84.2910,-9.97,1111122 
COMPS,ioos:station:USF.COMPS:SHP:1,2017-03-05T01:24:00Z,30.0600,-84.2910,-9.997,1111122 
COMPS,ioos:station:USF.COMPS:SHP:1,2017-03-05T11:48:00Z,30.0600,-84.2910,-9.991,1111122 
COMPS,ioos:station:USF.COMPS:SHP:1,2017-03-05T11:54:00Z,30.0600,-84.2910,-9.98,1111122 
COMPS,ioos:station:USF.COMPS:SHP:1,2017-03-05T12:00:00Z,30.0600,-84.2910,-9.97,1111122 
COMPS,ioos:station:USF.COMPS:SHP:1,2017-03-05T12:06:00Z,30.0600,-84.2910,-9.959,1111122 
COMPS,ioos:station:USF.COMPS:SHP:1,2017-03-05T12:12:00Z,30.0600,-84.2910,-9.952,1111122 
COMPS,ioos:station:USF.COMPS:SHP:1,2017-03-05T12:18:00Z,30.0600,-84.2910,-9.943,1111122 
COMPS,ioos:station:USF.COMPS:SHP:1,2017-03-05T12:24:00Z,30.0600,-84.2910,-9.939,1111122 
COMPS,ioos:station:USF.COMPS:SHP:1,2017-03-05T12:30:00Z,30.0600,-84.2910,-9.935,1111122 
COMPS,ioos:station:USF.COMPS:SHP:1,2017-03-05T12:36:00Z,30.0600,-84.2910,-9.923,1111122 
COMPS,ioos:station:USF.COMPS:SHP:1,2017-03-05T12:42:00Z,30.0600,-84.2910,-9.916,1111122 
COMPS,ioos:station:USF.COMPS:SHP:1,2017-03-05T12:48:00Z,30.0600,-84.2910,-9.916,1111122 
COMPS,ioos:station:USF.COMPS:SHP:1,2017-03-05T12:54:00Z,30.0600,-84.2910,-9.904,1111122 
COMPS,ioos:station:USF.COMPS:SHP:1,2017-03-05T13:00:00Z,30.0600,-84.2910,-9.889,1111122 
COMPS,ioos:station:USF.COMPS:SHP:1,2017-03-05T13:06:00Z,30.0600,-84.2910,-9.879,1111122 
COMPS,ioos:station:USF.COMPS:SHP:1,2017-03-05T13:12:00Z,30.0600,-84.2910,-9.871,1111122 
COMPS,ioos:station:USF.COMPS:SHP:1,2017-03-05T13:18:00Z,30.0600,-84.2910,-9.871,1111122 
COMPS,ioos:station:USF.COMPS:SHP:1,2017-03-05T13:24:00Z,30.0600,-84.2910,-9.863,1111122 
COMPS,ioos:station:USF.COMPS:SHP:1,2017-03-05T13:30:00Z,30.0600,-84.2910,-9.855,1111122 
COMPS,ioos:station:USF.COMPS:SHP:1,2017-03-05T13:36:00Z,30.0600,-84.2910,-9.85,1111122 
COMPS,ioos:station:USF.COMPS:SHP:1,2017-03-05T13:42:00Z,30.0600,-84.2910,-9.842,1111122 
COMPS,ioos:station:USF.COMPS:SHP:1,2017-03-05T13:48:00Z,30.0600,-84.2910,-9.844,1111122 
COMPS,ioos:station:USF.COMPS:SHP:1,2017-03-05T13:54:00Z,30.0600,-84.2910,-9.846,1111122 
COMPS,ioos:station:USF.COMPS:SHP:1,2017-03-05T14:00:00Z,30.0600,-84.2910,-9.834,1111122 
COMPS,ioos:station:USF.COMPS:SHP:1,2017-03-05T14:06:00Z,30.0600,-84.2910,-9.827,1111122 
COMPS,ioos:station:USF.COMPS:SHP:1,2017-03-05T14:12:00Z,30.0600,-84.2910,-9.829,1111122 
COMPS,ioos:station:USF.COMPS:SHP:1,2017-03-05T14:18:00Z,30.0600,-84.2910,-9.83,1111122 
COMPS,ioos:station:USF.COMPS:SHP:1,2017-03-05T14:24:00Z,30.0600,-84.2910,-9.831,1111122 
COMPS,ioos:station:USF.COMPS:SHP:1,2017-03-05T14:30:00Z,30.0600,-84.2910,-9.834,1111122 
COMPS,ioos:station:USF.COMPS:SHP:1,2017-03-05T14:36:00Z,30.0600,-84.2910,-9.838,1111122 
COMPS,ioos:station:USF.COMPS:SHP:1,2017-03-05T14:42:00Z,30.0600,-84.2910,-9.839,1111122 
COMPS,ioos:station:USF.COMPS:SHP:1,2017-03-05T14:48:00Z,30.0600,-84.2910,-9.835,1111122 
COMPS,ioos:station:USF.COMPS:SHP:1,2017-03-05T14:54:00Z,30.0600,-84.2910,-9.837,1111122 
COMPS,ioos:station:USF.COMPS:SHP:1,2017-03-05T15:00:00Z,30.0600,-84.2910,-9.852,1111122 
COMPS,ioos:station:USF.COMPS:SHP:1,2017-03-05T15:06:00Z,30.0600,-84.2910,-9.855,1111122 
COMPS,ioos:station:USF.COMPS:SHP:1,2017-03-05T15:12:00Z,30.0600,-84.2910,-9.856,1111122 
COMPS,ioos:station:USF.COMPS:SHP:1,2017-03-05T15:18:00Z,30.0600,-84.2910,-9.867,1111122 
COMPS,ioos:station:USF.COMPS:SHP:1,2017-03-05T15:24:00Z,30.0600,-84.2910,-9.877,1111122 
COMPS,ioos:station:USF.COMPS:SHP:1,2017-03-05T15:30:00Z,30.0600,-84.2910,-9.881,1111122 
COMPS,ioos:station:USF.COMPS:SHP:1,2017-03-05T15:36:00Z,30.0600,-84.2910,-9.887,1111122 
COMPS,ioos:station:USF.COMPS:SHP:1,2017-03-05T15:42:00Z,30.0600,-84.2910,-9.901,1111122 
COMPS,ioos:station:USF.COMPS:SHP:1,2017-03-05T15:48:00Z,30.0600,-84.2910,-9.904,1111122 
COMPS,ioos:station:USF.COMPS:SHP:1,2017-03-05T15:54:00Z,30.0600,-84.2910,-9.904,1111122 
COMPS,ioos:station:USF.COMPS:SHP:1,2017-03-05T16:00:00Z,30.0600,-84.2910,-9.916,1111122 
COMPS,ioos:station:USF.COMPS:SHP:1,2017-03-05T16:06:00Z,30.0600,-84.2910,-9.928,1111122 
COMPS,ioos:station:USF.COMPS:SHP:1,2017-03-05T16:12:00Z,30.0600,-84.2910,-9.939,1111122 
COMPS,ioos:station:USF.COMPS:SHP:1,2017-03-05T16:18:00Z,30.0600,-84.2910,-9.945,1111122 
COMPS,ioos:station:USF.COMPS:SHP:1,2017-03-05T16:24:00Z,30.0600,-84.2910,-9.953,1111122 
COMPS,ioos:station:USF.COMPS:SHP:1,2017-03-05T16:30:00Z,30.0600,-84.2910,-9.965,1111122 
COMPS,ioos:station:USF.COMPS:SHP:1,2017-03-05T16:36:00Z,30.0600,-84.2910,-9.967,1111122 
COMPS,ioos:station:USF.COMPS:SHP:1,2017-03-05T16:42:00Z,30.0600,-84.2910,-9.974,1111122 
COMPS,ioos:station:USF.COMPS:SHP:1,2017-03-05T16:48:00Z,30.0600,-84.2910,-9.988,1111122 
COMPS,ioos:station:USF.COMPS:SHP:1,2017-03-05T16:54:00Z,30.0600,-84.2910,-9.996,1111122 
COMPS,ioos:station:USF.COMPS:SHP:1,2017-03-05T19:24:00Z,30.0600,-84.2910,-9.992,1111122 
COMPS,ioos:station:USF.COMPS:SHP:1,2017-03-05T19:30:00Z,30.0600,-84.2910,-9.972,1111122 
COMPS,ioos:station:USF.COMPS:SHP:1,2017-03-05T19:36:00Z,30.0600,-84.2910,-9.959,1111122 
COMPS,ioos:station:USF.COMPS:SHP:1,2017-03-05T19:42:00Z,30.0600,-84.2910,-9.954,1111122 
COMPS,ioos:station:USF.COMPS:SHP:1,2017-03-05T19:48:00Z,30.0600,-84.2910,-9.946,1111122 
COMPS,ioos:station:USF.COMPS:SHP:1,2017-03-05T19:54:00Z,30.0600,-84.2910,-9.937,1111122 
COMPS,ioos:station:USF.COMPS:SHP:1,2017-03-05T20:00:00Z,30.0600,-84.2910,-9.929,1111122 
COMPS,ioos:station:USF.COMPS:SHP:1,2017-03-05T20:06:00Z,30.0600,-84.2910,-9.923,1111122 
COMPS,ioos:station:USF.COMPS:SHP:1,2017-03-05T20:12:00Z,30.0600,-84.2910,-9.91,1111122 
COMPS,ioos:station:USF.COMPS:SHP:1,2017-03-05T20:18:00Z,30.0600,-84.2910,-9.897,1111122 
COMPS,ioos:station:USF.COMPS:SHP:1,2017-03-05T20:24:00Z,30.0600,-84.2910,-9.883,1111122 
COMPS,ioos:station:USF.COMPS:SHP:1,2017-03-05T20:30:00Z,30.0600,-84.2910,-9.873,1111122 
COMPS,ioos:station:USF.COMPS:SHP:1,2017-03-05T20:36:00Z,30.0600,-84.2910,-9.865,1111122 
COMPS,ioos:station:USF.COMPS:SHP:1,2017-03-05T20:42:00Z,30.0600,-84.2910,-9.854,1111122 
COMPS,ioos:station:USF.COMPS:SHP:1,2017-03-05T20:48:00Z,30.0600,-84.2910,-9.846,1111122 
COMPS,ioos:station:USF.COMPS:SHP:1,2017-03-05T20:54:00Z,30.0600,-84.2910,-9.835,1111122 
COMPS,ioos:station:USF.COMPS:SHP:1,2017-03-05T21:00:00Z,30.0600,-84.2910,-9.831,1111122 
COMPS,ioos:station:USF.COMPS:SHP:1,2017-03-05T21:06:00Z,30.0600,-84.2910,-9.818,1111122 
COMPS,ioos:station:USF.COMPS:SHP:1,2017-03-05T21:12:00Z,30.0600,-84.2910,-9.801,1111122 
COMPS,ioos:station:USF.COMPS:SHP:1,2017-03-05T21:18:00Z,30.0600,-84.2910,-9.789,1111122 
COMPS,ioos:station:USF.COMPS:SHP:1,2017-03-05T21:24:00Z,30.0600,-84.2910,-9.776,1111122 
COMPS,ioos:station:USF.COMPS:SHP:1,2017-03-05T21:30:00Z,30.0600,-84.2910,-9.772,1111122 
COMPS,ioos:station:USF.COMPS:SHP:1,2017-03-05T21:36:00Z,30.0600,-84.2910,-9.758,1111122 
COMPS,ioos:station:USF.COMPS:SHP:1,2017-03-05T21:42:00Z,30.0600,-84.2910,-9.749,1111122 
COMPS,ioos:station:USF.COMPS:SHP:1,2017-03-05T21:48:00Z,30.0600,-84.2910,-9.751,1111122 
COMPS,ioos:station:USF.COMPS:SHP:1,2017-03-05T21:54:00Z,30.0600,-84.2910,-9.74,1111122 
COMPS,ioos:station:USF.COMPS:SHP:1,2017-03-05T22:00:00Z,30.0600,-84.2910,-9.724,1111122 
COMPS,ioos:station:USF.COMPS:SHP:1,2017-03-05T22:06:00Z,30.0600,-84.2910,-9.715,1111122 
COMPS,ioos:station:USF.COMPS:SHP:1,2017-03-05T22:12:00Z,30.0600,-84.2910,-9.707,1111122 
COMPS,ioos:station:USF.COMPS:SHP:1,2017-03-05T22:18:00Z,30.0600,-84.2910,-9.694,1111122 
COMPS,ioos:station:USF.COMPS:SHP:1,2017-03-05T22:24:00Z,30.0600,-84.2910,-9.691,1111122 
COMPS,ioos:station:USF.COMPS:SHP:1,2017-03-05T22:30:00Z,30.0600,-84.2910,-9.693,1111122 
COMPS,ioos:station:USF.COMPS:SHP:1,2017-03-05T22:36:00Z,30.0600,-84.2910,-9.692,1111122 
COMPS,ioos:station:USF.COMPS:SHP:1,2017-03-05T22:42:00Z,30.0600,-84.2910,-9.684,1111122 
COMPS,ioos:station:USF.COMPS:SHP:1,2017-03-05T22:48:00Z,30.0600,-84.2910,-9.675,1111122 
COMPS,ioos:station:USF.COMPS:SHP:1,2017-03-05T22:54:00Z,30.0600,-84.2910,-9.672,1111122 
COMPS,ioos:station:USF.COMPS:SHP:1,2017-03-05T23:00:00Z,30.0600,-84.2910,-9.661,1111122 
COMPS,ioos:station:USF.COMPS:SHP:1,2017-03-05T23:06:00Z,30.0600,-84.2910,-9.652,1111122 
COMPS,ioos:station:USF.COMPS:SHP:1,2017-03-05T23:12:00Z,30.0600,-84.2910,-9.646,1111122 
COMPS,ioos:station:USF.COMPS:SHP:1,2017-03-05T23:18:00Z,30.0600,-84.2910,-9.641,1111122 
COMPS,ioos:station:USF.COMPS:SHP:1,2017-03-05T23:24:00Z,30.0600,-84.2910,-9.638,1111122 
COMPS,ioos:station:USF.COMPS:SHP:1,2017-03-05T23:30:00Z,30.0600,-84.2910,-9.64,1111122 
COMPS,ioos:station:USF.COMPS:SHP:1,2017-03-05T23:36:00Z,30.0600,-84.2910,-9.643,1111122 
COMPS,ioos:station:USF.COMPS:SHP:1,2017-03-05T23:42:00Z,30.0600,-84.2910,-9.63,1111122 
COMPS,ioos:station:USF.COMPS:SHP:1,2017-03-05T23:48:00Z,30.0600,-84.2910,-9.617,1111122 
COMPS,ioos:station:USF.COMPS:SHP:1,2017-03-05T23:54:00Z,30.0600,-84.2910,-9.608,1111122 
COMPS,ioos:station:USF.COMPS:SHP:1,2017-03-06T00:00:00Z,30.0600,-84.2910,-9.599,1111122 
COMPS,ioos:station:USF.COMPS:SHP:1,2017-03-06T00:06:00Z,30.0600,-84.2910,-9.607,1111122 
COMPS,ioos:station:USF.COMPS:SHP:1,2017-03-06T00:12:00Z,30.0600,-84.2910,-9.611,1111122 
COMPS,ioos:station:USF.COMPS:SHP:1,2017-03-06T00:18:00Z,30.0600,-84.2910,-9.598,1111122 
COMPS,ioos:station:USF.COMPS:SHP:1,2017-03-06T00:24:00Z,30.0600,-84.2910,-9.586,1111122 
COMPS,ioos:station:USF.COMPS:SHP:1,2017-03-06T00:30:00Z,30.0600,-84.2910,-9.583,1111122 
COMPS,ioos:station:USF.COMPS:SHP:1,2017-03-06T00:36:00Z,30.0600,-84.2910,-9.579,1111122 
COMPS,ioos:station:USF.COMPS:SHP:1,2017-03-06T00:42:00Z,30.0600,-84.2910,-9.579,1111122 
COMPS,ioos:station:USF.COMPS:SHP:1,2017-03-06T00:48:00Z,30.0600,-84.2910,-9.591,1111122 
COMPS,ioos:station:USF.COMPS:SHP:1,2017-03-06T00:54:00Z,30.0600,-84.2910,-9.593,1111122 
COMPS,ioos:station:USF.COMPS:SHP:1,2017-03-06T01:00:00Z,30.0600,-84.2910,-9.587,1111122 
COMPS,ioos:station:USF.COMPS:SHP:1,2017-03-06T01:06:00Z,30.0600,-84.2910,-9.598,1111122 
COMPS,ioos:station:USF.COMPS:SHP:1,2017-03-06T01:12:00Z,30.0600,-84.2910,-9.611,1111122 
COMPS,ioos:station:USF.COMPS:SHP:1,2017-03-06T01:18:00Z,30.0600,-84.2910,-9.605,1111122 
COMPS,ioos:station:USF.COMPS:SHP:1,2017-03-06T01:24:00Z,30.0600,-84.2910,-9.613,1111122 
COMPS,ioos:station:USF.COMPS:SHP:1,2017-03-06T01:30:00Z,30.0600,-84.2910,-9.629,1111122 
COMPS,ioos:station:USF.COMPS:SHP:1,2017-03-06T01:36:00Z,30.0600,-84.2910,-9.627,1111122 
COMPS,ioos:station:USF.COMPS:SHP:1,2017-03-06T01:42:00Z,30.0600,-84.2910,-9.635,1111122 
COMPS,ioos:station:USF.COMPS:SHP:1,2017-03-06T01:48:00Z,30.0600,-84.2910,-9.651,1111122 
COMPS,ioos:station:USF.COMPS:SHP:1,2017-03-06T01:54:00Z,30.0600,-84.2910,-9.656,1111122 
COMPS,ioos:station:USF.COMPS:SHP:1,2017-03-06T02:00:00Z,30.0600,-84.2910,-9.653,1111122 
COMPS,ioos:station:USF.COMPS:SHP:1,2017-03-06T02:06:00Z,30.0600,-84.2910,-9.669,1111122 
COMPS,ioos:station:USF.COMPS:SHP:1,2017-03-06T02:12:00Z,30.0600,-84.2910,-9.695,1111122 
COMPS,ioos:station:USF.COMPS:SHP:1,2017-03-06T02:18:00Z,30.0600,-84.2910,-9.707,1111122 
COMPS,ioos:station:USF.COMPS:SHP:1,2017-03-06T02:24:00Z,30.0600,-84.2910,-9.708,1111122 
COMPS,ioos:station:USF.COMPS:SHP:1,2017-03-06T02:30:00Z,30.0600,-84.2910,-9.719,1111122 
COMPS,ioos:station:USF.COMPS:SHP:1,2017-03-06T02:36:00Z,30.0600,-84.2910,-9.73,1111122 
COMPS,ioos:station:USF.COMPS:SHP:1,2017-03-06T02:42:00Z,30.0600,-84.2910,-9.736,1111122 
COMPS,ioos:station:USF.COMPS:SHP:1,2017-03-06T02:48:00Z,30.0600,-84.2910,-9.749,1111122 